Flag for Mauritania Weather past 2 weeks in Nouadhibou, Mauritania

Now
64 °F

Clear.


Feels Like: 64 °F
Forecast: N/A
Wind: 14 mph from Northwest

Location: Nouadhibou Airport

Current Time: Mar 2, 2015 at 9:30:26 PM

Latest Report: Mar 2, 2015 at 9:00 PM


Visibility: 4 mi

Pressure: 30.04 "Hg

Humidity: 83%

Dew point: 59 °F

Location of NouadhibouLocation

Historic Weather in Nouadhibou — Graph

°F

Nouadhibou temperature yesterday

Maximum temperature yesterday: 79 °F (at 2:00 PM)
Minimum temperature yesterday: 57 °F (at 6:00 AM)
Average temperature yesterday: 64 °F

Past Weeks' High & Low Weather Summary

 TemperatureHumidityPressure
High88 °F (Feb 26, 2:00 PM)88% (Feb 20, 6:00 AM)30.21 "Hg (Feb 20, 6:00 AM)
Low55 °F (Feb 18, 8:00 AM)13% (Mar 2, 3:00 PM)29.95 "Hg (Feb 18, 5:00 AM)
Average66 °F64%30.07 "Hg
* Reported Feb 15 8:00 PM — Mar 2 8:00 PM, Nouadhibou, Weather by CustomWeather, © 2015

Note: Actual official high and low records may vary slightly from our data, if they occured in-between our weather recording intervals... More about our weather records

Advertising

Nouadhibou weather history for previous 24 hours

 ConditionsComfort  
Time TempWeatherWind HumidityBarometerVisibility
8:00 PM
Mon, Mar 2
66 °FClear.14 mph78%30.01 "Hg4 mi
7:00 PM68 °FClear.14 mph69%30.01 "Hg4 mi
6:00 PM72 °FClear.14 mph61%30.01 "Hg4 mi
5:00 PM72 °FClear.14 mph61%30.01 "Hg4 mi
4:00 PM75 °FClear.12 mph50%29.98 "Hg5 mi
3:00 PM88 °FClear.5 mph13%30.01 "Hg5 mi
2:00 PM86 °FClear.7 mph17%30.04 "Hg5 mi
1:00 PM82 °FClear.9 mph23%30.09 "Hg4 mi
12:00 PM79 °FClear.9 mph32%30.12 "Hg5 mi
11:00 AM70 °FClear.14 mph57%30.12 "Hg5 mi
10:00 AM66 °FClear.18 mph64%30.12 "Hg5 mi
9:00 AM63 °FClear.16 mph73%30.09 "Hg5 mi
8:00 AM61 °FClear.14 mph77%30.09 "Hg5 mi
7:00 AM59 °FClear.16 mph77%30.07 "Hg4 mi
6:00 AM59 °FClear.14 mph77%30.07 "Hg4 mi
5:00 AM59 °FClear.14 mph77%30.07 "Hg4 mi
4:00 AM61 °FClear.14 mph72%30.07 "Hg4 mi
3:00 AM61 °FClear.16 mph77%30.07 "Hg4 mi
2:00 AM63 °FClear.16 mph77%30.09 "Hg4 mi
1:00 AM63 °FClear.14 mph77%30.09 "Hg4 mi
12:00 AM63 °FClear.14 mph77%30.09 "Hg4 mi
11:00 PM
Sun, Mar 1
63 °FClear.14 mph77%30.09 "Hg4 mi
10:00 PM63 °FClear.12 mph77%30.09 "Hg4 mi
9:00 PM64 °FClear.16 mph73%30.07 "Hg4 mi
Weather by CustomWeather, © 2015

See weather overviewHow to use our weather pages